Wind_Speed
25 26 26 27 27 27 27 27 27 26 26 25 25 25 25 25 25 25 25 25 24 24 24 24 23 23 22 22 22 22 22 23 23 23 24 25 25 26 27 29 30 30 30
24 25 25 25 25 26 26 25 25 24 24 24 24 24 24 24 24 25 24 24 24 24 24 23 23 22 22 21 21 21 22 22 22 21 22 22 23 24 25 26 27 28 29
24 25 25 25 25 25 24 24 23 23 22 22 22 22 22 22 22 23 23 23 23 23 23 22 21 21 21 21 20 20 20 21 21 22 21 21 21 22 23 25 25 26 28
24 24 24 24 24 24 23 23 22 22 22 21 20 19 19 20 20 20 20 20 21 21 21 20 20 20 20 20 20 20 20 20 21 21 21 21 21 22 23 23 24 24 25
23 23 22 22 22 22 22 21 21 20 19 19 18 18 18 18 17 17 17 17 18 19 19 19 19 19 19 19 19 19 19 20 19 20 20 20 20 19 20 20 21 22 22
22 21 21 20 20 20 20 19 18 17 17 16 16 17 16 16 16 16 15 16 17 16 16 16 16 17 17 17 17 17 17 17 18 18 18 17 17 17 18 18 19 20 20
20 20 19 19 18 17 17 16 16 16 15 15 15 15 15 14 14 13 13 13 13 13 13 14 14 13 14 15 15 15 15 16 17 16 15 15 15 16 16 17 17 18 18
18 18 17 16 15 15 15 15 15 14 14 13 13 13 13 12 11 11 10 10 9 9 9 10 10 10 10 11 11 12 13 14 13 13 13 13 14 14 14 15 15 16 17
15 14 14 14 14 13 13 12 12 12 11 10 9 9 9 9 8 8 8 7 7 6 5 5 5 6 6 7 7 7 7 8 8 9 10 10 11 10 11 11 12 12 13
13 12 12 11 11 10 9 8 8 8 8 7 7 7 6 5 5 5 5 4 3 2 1 1 1 1 2 2 2 2 2 3 4 4 5 6 7 7 8 9 9 10 10
10 9 9 8 7 6 6 5 5 5 5 5 5 4 4 3 3 3 2 2 1 1 1 1 1 2 2 3 3 2 2 2 2 2 2 3 4 4 5 6 6 7 8
7 6 6 5 5 4 4 4 3 3 3 3 2 2 3 3 3 2 2 2 2 2 2 3 3 4 5 5 5 5 4 4 4 4 4 4 4 4 4 5 5 6 7
5 4 4 3 3 3 2 2 2 1 1 1 1 2 2 3 3 3 3 3 3 4 4 4 5 5 6 6 6 6 5 5 6 6 5 5 5 5 6 7 8 8 9
3 3 3 3 3 3 2 2 1 1 2 3 3 4 4 4 4 5 5 5 6 6 6 6 6 6 6 7 7 7 7 7 7 7 8 8 7 7 7 8 8 9 9
3 3 3 4 4 4 3 3 3 3 4 5 6 6 7 7 8 8 7 7 7 7 8 8 7 8 8 8 8 8 8 9 9 9 9 9 9 9 10 10 10 11 11
3 4 5 5 5 5 6 6 6 7 7 8 8 9 9 9 9 8 8 8 8 9 8 8 8 9 9 9 10 10 10 11 11 10 11 11 10 10 10 11 11 12 13
5 6 7 8 8 8 9 9 9 10 10 11 11 11 11 11 10 10 10 10 10 9 9 9 10 10 11 11 11 11 11 11 11 11 11 11 11 11 11 12 12 13 13
7 7 8 9 10 10 10 11 11 12 12 12 13 13 13 12 12 12 12 12 12 12 12 12 12 12 11 11 11 11 11 11 12 12 12 12 12 12 13 13 14 14 15
8 9 10 10 11 11 12 12 12 12 13 13 13 14 14 14 14 13 14 14 14 13 13 13 13 12 12 12 12 12 12 12 12 12 12 12 13 13 14 14 15 16 17
10 10 11 11 12 12 13 13 13 14 14 14 14 14 14 14 14 14 14 14 14 13 13 12 12 12 12 11 11 11 12 12 12 12 12 13 13 14 14 15 16 17 19
9 10 10 11 12 12 12 13 13 14 14 14 14 14 13 14 13 13 13 13 13 12 12 11 11 11 10 10 11 11 11 11 11 11 11 12 13 14 15 16 17 18 19
10 11 11 12 13 13 12 12 13 14 14 14 14 14 14 13 13 13 12 12 12 11 11 11 10 10 10 10 10 10 10 10 10 10 11 12 14 15 16 17 18 19 21
10 10 10 11 12 12 12 12 12 12 13 13 13 12 12 12 12 11 11 10 10 10 10 9 9 9 9 9 9 9 9 10 10 11 12 13 15 16 17 18 20 21 23
9 9 9 10 10 10 10 10 10 10 11 11 10 10 10 10 9 9 9 9 8 8 8 8 7 8 8 8 8 8 9 10 11 12 13 15 16 17 18 19 21 23 24
7 8 8 8 8 9 9 9 8 8 8 9 8 8 8 8 8 7 7 7 7 7 6 6 6 6 6 6 7 8 9 10 12 13 15 16 17 19 20 21 23 24 26
6 6 6 7 7 7 7 7 7 7 7 7 7 6 6 6 5 5 5 5 4 4 3 3 4 4 5 6 7 9 10 11 13 14 16 17 19 20 22 23 25 26 28
Wind_Direction
283 282 281 280 280 279 278 278 278 278 277 276 276 275 275 274 274 274 273 274 273 273 272 271 270 268 267 266 265 265 262 263 265 266 263 263 262 261 261 261 262 263 265
284 283 282 280 279 279 279 279 279 278 277 275 276 275 274 273 272 272 273 273 273 271 271 270 269 267 265 265 264 263 264 264 265 265 265 262 261 262 262 263 264 265 266
284 284 282 280 279 279 279 279 279 278 277 275 274 274 275 275 274 273 273 274 273 271 271 269 268 266 265 265 265 264 264 264 263 265 265 264 263 265 267 267 267 268 270
285 285 283 282 281 280 280 280 279 278 276 275 274 274 274 275 275 274 273 273 272 270 269 269 269 268 266 264 264 264 262 263 263 264 264 264 264 267 269 269 267 269 273
287 287 286 285 283 282 281 281 280 279 277 275 273 273 276 276 276 275 276 273 272 271 267 267 268 268 266 264 264 263 262 261 263 264 264 265 266 267 270 272 271 274 278
288 288 288 286 284 284 283 281 281 281 278 276 276 275 276 276 276 276 277 276 275 274 270 267 267 267 264 265 264 262 261 260 261 261 262 264 267 270 274 276 278 280 282
289 288 287 286 284 284 283 281 280 280 278 277 275 274 276 275 277 279 278 279 279 277 275 271 267 263 263 263 262 258 256 257 257 259 261 263 267 272 277 280 283 285 286
291 290 290 288 286 283 280 279 279 279 278 278 276 273 274 276 278 280 281 281 281 280 279 272 270 267 263 259 258 258 257 257 256 260 265 269 273 277 283 286 289 291 291
293 291 291 290 287 284 280 278 279 278 278 280 276 272 272 273 279 280 277 281 278 280 285 280 277 273 266 261 260 259 261 263 264 267 271 276 281 284 289 292 295 299 301
293 292 293 293 291 288 285 285 285 281 274 272 272 272 268 271 277 275 271 271 271 266 274 279 263 278 291 285 265 245 270 280 278 277 283 286 291 295 299 302 307 309 311
300 298 299 300 298 296 293 291 289 282 273 270 266 258 255 254 251 254 238 209 197 178 146 110 101 86 97 102 100 84 62 56 42 11 348 336 331 326 324 321 322 323 325
310 310 312 313 308 304 301 299 299 294 279 271 258 234 218 209 204 195 169 153 149 139 126 122 109 98 99 94 86 84 80 69 57 45 38 32 21 16 8 358 354 349 343
331 328 329 332 333 332 331 333 335 331 293 275 200 175 162 160 156 156 151 141 130 126 118 109 100 97 93 89 84 82 80 74 65 58 52 49 43 32 21 14 9 3 355
358 359 4 2 3 3 8 18 55 67 85 103 121 132 137 136 134 130 127 123 119 114 107 104 99 92 89 88 84 80 75 68 60 56 54 50 48 40 31 23 16 9 5
22 25 30 38 46 47 56 70 80 87 104 110 116 120 124 122 123 123 119 115 113 113 108 102 97 93 90 86 83 78 74 69 63 60 57 53 49 45 39 32 26 21 14
51 53 56 62 64 70 74 82 88 94 99 108 112 114 118 120 121 120 116 116 112 106 100 96 95 93 89 86 82 80 76 72 69 66 61 56 51 45 39 32 25 20 15
70 69 73 73 79 84 84 87 91 94 94 102 108 112 113 114 116 115 113 110 107 104 102 100 98 95 94 90 86 82 77 73 69 65 62 57 51 44 37 32 27 22 18
80 82 85 86 87 88 86 92 94 96 97 99 103 107 109 110 109 108 107 107 105 103 102 102 100 97 94 91 87 82 76 71 67 64 61 55 49 43 38 33 29 24 19
88 89 93 93 92 93 94 96 97 98 99 101 104 107 108 108 108 106 106 105 104 103 101 100 98 96 93 89 85 79 73 69 66 62 56 49 43 38 35 31 26 22 17
93 95 96 98 98 97 97 98 99 101 102 103 105 107 107 107 108 107 106 104 103 102 100 99 97 94 91 87 81 76 71 67 62 56 48 42 36 32 27 22 18 15 12
97 97 99 102 104 103 102 101 103 104 105 105 106 107 107 106 107 107 108 107 105 102 100 97 95 92 88 83 78 73 68 61 54 47 40 34 28 23 19 14 11 8 5
100 102 104 106 106 105 104 105 107 107 107 107 108 108 108 108 108 108 108 107 104 102 99 97 94 90 85 80 74 67 59 52 45 37 29 23 18 13 9 6 3 0 358
107 108 109 109 109 108 108 108 110 110 111 111 111 111 111 111 110 109 107 104 102 99 97 93 89 83 78 73 66 58 49 41 34 28 23 17 12 8 5 3 1 359 356
110 112 113 113 112 113 114 114 115 115 113 113 114 114 114 112 111 108 105 101 99 95 92 89 83 77 70 63 55 45 36 29 23 18 14 10 7 4 2 360 357 355 353
116 117 119 119 120 121 121 121 121 119 118 118 118 118 116 115 113 109 105 103 99 94 90 83 75 65 55 45 36 28 21 16 11 7 5 3 360 358 356 354 351 350 348
127 128 128 128 129 131 132 131 129 127 127 126 126 124 121 119 115 113 110 105 99 90 77 63 50 38 29 21 13 8 4 0 358 355 354 352 351 350 349 348 346 345 344
Height
5786 5785 5783 5782 5781 5779 5778 5777 5776 5775 5774 5773 5772 5772 5771 5771 5770 5770 5770 5769 5769 5769 5768 5768 5768 5769 5769 5769 5770 5770 5771 5771 5771 5772 5772 5773 5773 5774 5774 5775 5775 5775 5775
5780 5778 5776 5775 5774 5772 5771 5770 5768 5767 5767 5766 5765 5765 5764 5764 5763 5763 5763 5763 5763 5762 5762 5762 5762 5763 5763 5764 5764 5765 5765 5765 5766 5766 5766 5767 5767 5768 5768 5768 5768 5768 5768
5773 5771 5769 5768 5766 5765 5764 5763 5761 5760 5760 5759 5758 5758 5758 5757 5757 5756 5756 5756 5756 5756 5756 5756 5756 5757 5757 5758 5759 5759 5760 5760 5761 5761 5761 5761 5761 5762 5762 5762 5762 5762 5762
5766 5764 5762 5761 5759 5758 5757 5756 5755 5754 5754 5753 5752 5752 5751 5751 5750 5750 5750 5750 5750 5750 5750 5750 5751 5751 5752 5752 5753 5754 5755 5755 5755 5756 5756 5756 5756 5756 5756 5756 5756 5756 5755
5759 5757 5756 5754 5753 5752 5750 5750 5749 5748 5747 5747 5746 5746 5746 5746 5745 5745 5745 5744 5744 5744 5744 5744 5745 5746 5746 5747 5748 5749 5750 5750 5750 5751 5751 5751 5751 5751 5751 5751 5751 5750 5750
5753 5751 5749 5748 5747 5745 5744 5744 5743 5742 5742 5742 5741 5741 5741 5741 5741 5741 5740 5740 5740 5739 5739 5739 5740 5741 5742 5742 5743 5744 5745 5745 5746 5746 5746 5746 5746 5747 5747 5746 5746 5746 5745
5747 5745 5743 5742 5741 5740 5739 5738 5738 5738 5737 5737 5737 5737 5737 5737 5737 5737 5737 5736 5736 5736 5736 5736 5736 5737 5738 5738 5739 5739 5740 5740 5741 5741 5742 5742 5742 5742 5742 5742 5742 5741 5740
5741 5740 5738 5737 5736 5735 5734 5734 5734 5733 5733 5733 5733 5733 5734 5734 5734 5734 5734 5734 5733 5733 5733 5733 5733 5734 5734 5735 5735 5735 5736 5736 5736 5737 5738 5738 5738 5738 5738 5738 5737 5737 5736
5737 5735 5734 5733 5732 5731 5730 5730 5730 5729 5729 5730 5730 5730 5730 5731 5731 5731 5731 5732 5732 5732 5732 5732 5732 5732 5732 5732 5732 5733 5733 5733 5733 5734 5734 5734 5734 5735 5734 5734 5734 5733 5732
5733 5732 5730 5729 5728 5728 5727 5727 5727 5726 5726 5727 5727 5727 5728 5728 5729 5729 5729 5730 5730 5730 5730 5731 5731 5731 5731 5731 5731 5731 5731 5731 5732 5732 5732 5732 5732 5732 5732 5731 5731 5730 5729
5730 5729 5728 5727 5726 5726 5725 5725 5725 5724 5724 5724 5725 5725 5726 5727 5727 5728 5728 5729 5730 5730 5730 5731 5731 5731 5731 5731 5731 5731 5731 5731 5731 5731 5731 5731 5730 5730 5730 5729 5729 5728 5727
5727 5726 5726 5725 5725 5724 5724 5723 5723 5723 5723 5723 5723 5724 5725 5726 5727 5727 5728 5729 5730 5730 5731 5731 5731 5731 5731 5731 5731 5731 5731 5731 5731 5731 5730 5730 5730 5729 5729 5728 5727 5727 5726
5726 5726 5725 5724 5724 5724 5723 5723 5722 5722 5722 5722 5723 5723 5724 5725 5726 5727 5728 5729 5730 5731 5731 5732 5732 5732 5732 5732 5732 5732 5732 5732 5731 5731 5731 5730 5730 5730 5729 5728 5727 5726 5724
5726 5726 5725 5724 5724 5723 5723 5722 5722 5722 5722 5722 5723 5724 5725 5726 5727 5728 5729 5730 5731 5732 5732 5733 5733 5733 5734 5733 5733 5733 5733 5733 5733 5732 5732 5731 5731 5730 5729 5728 5727 5725 5724
5727 5726 5725 5725 5724 5724 5723 5723 5723 5722 5722 5723 5724 5725 5726 5727 5728 5729 5730 5732 5732 5733 5734 5735 5735 5735 5735 5735 5735 5735 5735 5735 5734 5734 5733 5732 5732 5731 5730 5729 5727 5726 5724
5727 5727 5726 5726 5725 5725 5725 5725 5724 5724 5724 5724 5725 5727 5728 5729 5730 5731 5732 5733 5734 5735 5736 5736 5737 5737 5737 5737 5737 5737 5737 5737 5736 5735 5735 5734 5733 5732 5731 5730 5728 5726 5724
5729 5729 5728 5728 5727 5727 5727 5727 5727 5727 5727 5728 5728 5729 5731 5732 5733 5734 5735 5736 5737 5737 5738 5739 5739 5740 5740 5740 5740 5740 5739 5739 5738 5738 5737 5736 5735 5734 5732 5731 5729 5727 5724
5732 5731 5731 5731 5731 5731 5730 5730 5731 5731 5731 5732 5733 5733 5734 5735 5736 5737 5738 5739 5740 5740 5741 5741 5742 5742 5743 5743 5743 5742 5742 5742 5741 5740 5739 5738 5737 5735 5734 5732 5730 5727 5725
5734 5734 5734 5734 5734 5734 5734 5734 5735 5735 5735 5736 5737 5737 5738 5739 5740 5741 5742 5742 5743 5744 5744 5745 5745 5746 5746 5746 5746 5745 5745 5744 5743 5743 5741 5740 5739 5737 5735 5733 5730 5728 5725
5738 5738 5738 5738 5738 5738 5738 5738 5739 5739 5740 5740 5741 5742 5742 5743 5744 5745 5745 5746 5747 5747 5748 5748 5749 5749 5749 5749 5748 5748 5747 5746 5746 5745 5743 5742 5740 5738 5736 5733 5731 5728 5725
5741 5741 5741 5741 5742 5742 5742 5743 5743 5744 5744 5745 5745 5746 5747 5747 5748 5749 5749 5750 5750 5751 5751 5752 5752 5752 5752 5751 5751 5750 5750 5749 5748 5747 5745 5743 5741 5739 5737 5734 5731 5728 5724
5745 5745 5745 5745 5746 5746 5747 5747 5747 5748 5748 5749 5750 5750 5751 5752 5752 5753 5754 5754 5754 5754 5755 5755 5755 5755 5754 5754 5753 5753 5752 5751 5749 5748 5746 5744 5742 5739 5736 5733 5730 5727 5723
5748 5749 5749 5749 5750 5750 5751 5751 5752 5752 5753 5753 5754 5755 5755 5756 5756 5757 5757 5757 5758 5758 5758 5758 5758 5757 5757 5756 5755 5754 5753 5752 5750 5749 5747 5744 5742 5739 5736 5733 5729 5726 5722
5752 5752 5752 5753 5753 5754 5754 5755 5756 5756 5757 5757 5758 5758 5759 5759 5760 5760 5760 5760 5760 5760 5760 5760 5760 5759 5759 5758 5757 5756 5754 5753 5751 5749 5747 5744 5741 5739 5735 5732 5728 5724 5720
5755 5755 5756 5756 5757 5757 5758 5758 5759 5760 5760 5761 5761 5762 5762 5762 5763 5763 5763 5763 5763 5763 5762 5762 5762 5761 5760 5759 5758 5757 5755 5753 5751 5749 5746 5744 5741 5737 5734 5730 5726 5722 5717
5757 5758 5758 5759 5759 5760 5760 5761 5762 5762 5763 5763 5764 5764 5764 5765 5765 5765 5765 5765 5765 5764 5764 5764 5763 5762 5761 5760 5758 5757 5755 5753 5751 5748 5745 5742 5739 5735 5732 5728 5723 5719 5714